Weather Roundup
Issued by NWS Chicago, IL

Home | Current Version | Previous Version | Graphics & Text | Print | Product List | Glossary On
Versions: 1 2 3 4 5 6 7 8 9 10 11 12 13 14 15 16 17 18 19 20 21 22 23 24 25 26 27 28 29 30 31 32 33 34 35 36 37 38 39 40 41 42 43 44 45 46 47 48 49 50
000
NZUS59 KLOT 021706
HRRLOT

CHICAGO AREA WEATHER ROUNDUP
NATIONAL WEATHER SERVICE CHICAGO/ROMEOVILLE IL
1200 PM CDT SUN AUG 02 2015

NOTE: "FAIR" INDICATES FEW OR NO CLOUDS BELOW 12,000 FEET WITH NO
SIGNIFICANT WEATHER AND/OR OBSTRUCTIONS TO VISIBILITY.

* THESE STATIONS ARE NOT UNDER NWS QUALITY CONTROL. THEY ALSO MAY NOT
  REPORT WEATHER SUCH AS PRECIPITATION OR FOG.

ILZ005-006-012>014-019>023-021800-
NORTHEAST ILLINOIS

CITY           SKY/WX    TMP DP  RH WIND       PRES   REMARKS
OHARE          MOSUNNY   88  63  43 SW20G30   29.79F HX  89
MIDWAY         MOSUNNY   90  62  39 W24G30    29.81F HX  90
AURORA         SUNNY     87  62  43 SW15G26   29.82F HX  87
WAUKEGAN       SUNNY     87  67  51 SW21G31   29.75F HX  90
DUPAGE AIRPORT SUNNY     87  63  44 SW20G30   29.81F HX  88
WHEELING       SUNNY     89  62  40 SW18G29   29.79F HX  89
NORTHERLY IS     N/A     87  59  38 W13         N/A  HX  86
$$

WIZ051-052-058>065-066-070>072-021800-
SOUTHEAST WISCONSIN

CITY           SKY/WX    TMP DP  RH WIND       PRES   REMARKS
MILWAUKEE      PTSUNNY   88  68  51 SW18G28   29.74S HX  91
KENOSHA*       MOSUNNY   87  69  54 W20G33    29.76S HX  91
RACINE*        MOSUNNY   87  67  51 W17G26    29.76R HX  90
WAUKESHA       SUNNY     84  66  54 SW15G23   29.75F HX  86
$$

INZ001>003-010>013-019-020-021800-
NORTHWEST INDIANA

CITY           SKY/WX    TMP DP  RH WIND       PRES   REMARKS
GARY*          MOSUNNY   88  66  48 SW16G30   29.83F HX  90
MICHIGAN CITY* NOT AVBL
RENSSELAER*    NOT AVBL
$$

LMZ740>746-021800-
SOUTHERN LAKE MICHIGAN

STATION/POSITION TIME  SKY/WX   TEMP WIND        PRES    VSBY
                                AIR  DIR/SP/G
                 (UTC)          (F)  (DEG/KT/KT) (MB)    (MI)
HARRISON CRIB    1600            83  240/ 23/ 32   N/A
BURNHAM HARBOR   1600            86  240/ 10/ 19   N/A
CALUMET HARBOR   1600            85  230/ 13/ 22   N/A
BURNS HARBOR     1624            84  210/ 19/ 25 1010.2F
MICHIGAN CITY    1600            81  190/ 18/ 23   N/A
$$

ABBREVIATIONS USED IN REMARKS
   TC - TEMPERATURE IN CELSIUS
  WCI - WIND CHILL INDEX
   HX - HEAT INDEX
  VSB - VISIBILITY
$$


USA.gov is the U.S. government's official web portal to all federal, state and local government web resources and services.